Tracking 19638 objects as of 20-Apr-2019
HD Live streaming from Space Station
objects crossing your sky now

PEGASUS R/B

Track PEGASUS R/B now!
10-day predictions


NORAD ID: 23815
Int'l Code: 1996-014B
Perigee: 799.0 km
Apogee: 833.9 km
Inclination: 90.1 °
Period: 101.1 minutes
Semi major axis: 7187 km
RCS: 1.5519 m2 (large)
Launch date: March 9, 1996
Source: United States (US)
Launch site: AIR FORCE WESTERN TEST RANGE (AFWTR)

Note: This is a ROCKET BODY
aabbcc
Your satellite tracking list
Your tracking list is empty




NASA's NSSDC Master Catalog

Two Line Element Set (TLE):
1 23815U 96014B   19108.68366237  .00000068  00000-0  24372-4 0  9995
2 23815  90.0775 327.9251 0024279  73.3729 351.7585 14.24753025201025
Source of the keplerian elements: AFSPC